Погода в Брюсселе

Бельгия     50°51′15″N   4°21′07″E
темп.,
°C
ветер,
м/с
пор.,
м/с
влажн.,
%
обл.,
%
осадки,
мм/ч
давл.,
гПа
погр.,
м
22 сентября, ср
ср2223:00+12вюв226695 0.0 103133
02:00+12юв2268100 0.0 103038
05:00+11ююв1169100 0.0 102910
08:00+11юв1168100 0.0 103014
11:00+16юв2255100 0.0 1030354
14:00+19ю1247100 0.0 1028781
17:00+20ююз224619 0.0 1026887
20:00+15ююз226199 0.0 102620
23 сентября, чт
чт2323:00+13ююз22696 0.0 102536
02:00+12юз34762 0.0 102483
05:00+10юз36818 0.0 1023133
08:00+10юз48825 0.0 1022180
11:00+16зюз58615 0.0 1021496
14:00+21з585128 0.0 10201155
17:00+21з5747100 0.0 10181458
20:00+17зсз3768100 0.0 1019436
24 сентября, пт
пт2423:00+14зюз36810 0.0 1019171
02:00+12зюз24900 0.0 101999
05:00+12юз35936 0.0 1018136
08:00+12юз37949 0.0 1019164
11:00+17юз57767 0.0 1018511
14:00+20зюз566328 0.0 10171127
17:00+21зюз56576 0.0 10161212
20:00+17зюз37770 0.0 1016232
25 сентября, сб
сб2523:00+14зюз37801 0.0 1017169
02:00+13юз36920 0.0 1017145
05:00+11юз36873 0.0 1016134
08:00+11ююз35845 0.0 1017119
11:00+17юз34572 0.0 1017358
14:00+21юз22425 0.0 1016798
17:00+22ююз124144 0.0 10151003
20:00+18в115934 0.0 101611
26 сентября, вс
вс2623:00+16юв237095 0.0 101652
02:00+17юв247195 0.0 101588
05:00+16ююв227290 0.0 101441
08:00+14ю347812 0.0 101479
11:00+20ююз466871 0.0 1015425
14:00+22ююз466374 0.0 1014792
17:00+24ююз465818 0.3 10131332
20:00+19ююз348093 1.4 101467